DW3982 Weather Reports


time (UTC)temp
C
wind
direction
speed
KPH
gust
KPH
rain 1hr
cm
rain 24hr
cm
rain mn
cm
humidity
%
barometer
mb
20260507040852 12 78 1.6 3.2 0.00 0.00 0.00 94 1010.9
20260507040347 12 59 3.2 3.2 0.00 0.00 0.00 92 1010.9
20260507035844 12 318 6.4 8.0 0.00 1.27 1.27 91 1010.8
20260507035339 12 69 1.6 3.2 0.00 1.27 1.27 90 1010.8
20260507034837 12 356 4.8 8.0 0.00 1.27 1.27 90 1010.8
20260507034334 12 6 4.8 8.0 0.00 1.27 1.27 89 1010.7
20260507033832 12 168 4.8 9.7 0.00 1.27 1.27 90 1010.4
20260507033330 12 37 4.8 8.0 0.00 1.27 1.27 90 1010.7
20260507032826 12 75 6.4 8.0 0.00 1.27 1.27 90 1010.6
20260507032322 13 1 4.8 8.0 0.00 1.27 1.27 89 1010.5
20260507031819 13 347 12.9 17.7 0.00 1.27 1.27 89 1010.6
20260507031316 13 18 11.3 14.5 0.00 1.27 1.27 89 1010.7
20260507030812 13 324 1.6 3.2 0.00 1.27 1.27 90 1010.9
20260507030310 13 15 4.8 9.7 0.00 1.27 1.27 90 1010.7
20260507025807 13 40 9.7 17.7 0.00 1.27 1.27 90 1010.6
20260507025306 13 83 11.3 14.5 0.00 1.27 1.27 89 1010.5
20260507024802 13 137 6.4 9.7 0.00 1.27 1.27 89 1010.4
20260507024259 13 19 4.8 4.8 0.00 1.27 1.27 89 1010.4
20260507023755 14 344 6.4 8.0 0.00 1.27 1.27 88 1010.3
20260507023251 13 99 6.4 9.7 0.00 1.27 1.27 88 1010.1
20260507022749 13 27 3.2 4.8 0.00 1.27 1.27 89 1010.3
20260507022245 14 1 3.2 3.2 0.00 1.27 1.27 88 1010.4
20260507021741 14 20 8.0 12.9 0.00 1.27 1.27 88 1010.2
20260507021237 14 27 3.2 4.8 0.00 1.27 1.27 88 1010.1
20260507020735 14 218 4.8 4.8 0.00 1.27 1.27 88 1010.2
20260507020232 14 353 8.0 9.7 0.00 1.27 1.27 88 1010.3
20260507015729 14 300 3.2 4.8 0.00 1.27 1.27 88 1010.4
20260507015226 14 332 12.9 17.7 0.00 1.27 1.27 88 1010.3
20260507014723 15 28 4.8 8.0 0.00 1.27 1.27 87 1010.3
20260507014219 15 325 14.5 22.5 0.00 1.27 1.27 87 1010.2
20260507013716 15 23 16.1 22.5 0.00 1.27 1.27 88 1010.4
20260507013214 15 336 6.4 9.7 0.00 1.27 1.27 88 1010.4
20260507012711 15 340 12.9 19.3 0.00 1.27 1.27 87 1010.2
20260507012206 15 6 12.9 17.7 0.00 1.27 1.27 89 1010.5
20260507011704 15 17 6.4 8.0 0.00 1.27 1.27 89 1010.4
20260507011200 15 32 12.9 22.5 0.00 1.27 1.27 90 1010.2
20260507010700 15 6 9.7 17.7 0.00 1.27 1.27 91 1010.1
20260507010156 15 75 6.4 9.7 0.00 1.27 1.27 92 1010.3
20260507005654 15 16 4.8 4.8 0.00 1.27 1.27 93 1010.1
20260507005154 15 40 9.7 12.9 0.00 1.27 1.27 94 1009.8
20260507004652 15 347 9.7 12.9 0.00 1.27 1.27 94 1009.8
20260507004149 15 83 8.0 12.9 0.00 1.27 1.27 94 1010.0
20260507003646 15 355 3.2 4.8 0.00 1.27 1.27 94 1009.7
20260507003145 15 72 4.8 8.0 0.00 1.27 1.27 95 1009.9
20260507002642 15 2 8.0 9.7 0.00 1.27 1.27 95 1009.7
20260507002138 15 334 9.7 9.7 0.00 1.27 1.27 96 1009.6
20260507001635 15 353 9.7 14.5 0.00 1.27 1.27 98 1009.3
20260507001133 15 71 6.4 8.0 0.00 1.27 1.27 99 1009.3
20260507000629 15 355 4.8 8.0 0.00 1.27 1.27 99 1009.3
20260507000124 15 111 8.0 12.9 0.00 1.27 1.27 99 1009.2
20260506235622 16 68 4.8 9.7 0.00 1.27 1.27 99 1008.9
20260506235122 16 24 4.8 4.8 0.00 1.27 1.27 99 1008.9
20260506234619 16 36 6.4 9.7 0.00 1.27 1.27 99 1008.6
20260506234116 16 26 3.2 4.8 0.00 1.27 1.27 99 1008.5
20260506233613 16 300 6.4 9.7 0.00 1.27 1.27 99 1008.1
20260506233110 16 259 4.8 8.0 0.00 1.27 1.27 99 1008.3
20260506232606 16 280 1.6 3.2 0.00 1.27 1.27 99 1008.5
20260506232102 16 346 1.6 3.2 0.00 1.27 1.27 99 1008.3
20260506231559 16 277 9.7 14.5 0.00 1.27 1.27 99 1008.3
20260506231057 16 291 11.3 17.7 0.00 1.27 1.27 99 1008.3
20260506230553 16 260 6.4 9.7 0.00 1.27 1.27 99 1008.5
20260506230051 16 296 4.8 8.0 0.18 1.27 1.27 99 1008.3
20260506225548 17 316 9.7 12.9 0.30 1.27 1.27 99 1008.2
20260506225044 17 312 3.2 4.8 0.71 1.24 1.24 99 1008.3
20260506224541 17 280 4.8 9.7 1.02 1.24 1.24 99 1008.1
20260506224037 17 259 8.0 9.7 1.27 1.12 1.12 99 1008.2
20260506223533 17 314 17.7 19.3 1.68 1.07 1.07 98 1008.2
20260506223030 17 259 3.2 8.0 1.50 0.94 0.94 98 1008.3
20260506222527 17 276 6.4 8.0 0.61 0.79 0.79 97 1008.1
20260506222023 17 310 4.8 4.8 0.00 0.69 0.69 97 1008.1
20260506221521 17 287 4.8 4.8 0.18 0.69 0.69 96 1008.0
20260506221019 18 264 4.8 4.8 0.18 0.69 0.69 95 1007.9
20260506220514 18 250 3.2 8.0 0.00 0.66 0.66 94 1008.0
20260506220010 18 285 4.8 4.8 0.00 0.66 0.66 93 1007.9
20260506215508 18 280 3.2 4.8 0.00 0.66 0.66 92 1007.9
20260506215003 18 30 3.2 3.2 0.00 0.66 0.66 91 1007.8
20260506214500 18 264 3.2 8.0 0.00 0.66 0.66 91 1007.8
20260506213957 18 273 3.2 4.8 0.00 0.66 0.66 91 1007.7
20260506213455 18 264 1.6 4.8 0.00 0.66 0.66 91 1007.8
20260506212952 18 226 4.8 4.8 0.00 0.66 0.66 90 1007.5
20260506212448 18 346 11.3 14.5 0.00 0.66 0.66 90 1007.5
20260506211943 18 335 8.0 12.9 0.00 0.66 0.66 90 1007.5
20260506211439 18 267 6.4 8.0 0.00 0.66 0.66 90 1007.3
20260506210937 18 282 4.8 8.0 0.00 0.66 0.66 90 1007.1
20260506210433 18 281 11.3 14.5 0.00 0.66 0.66 89 1007.4
20260506205931 18 285 6.4 9.7 0.00 0.66 0.66 89 1007.2
20260506205426 19 252 4.8 8.0 0.00 0.66 0.66 89 1007.4
20260506204923 19 330 11.3 14.5 0.00 0.66 0.66 88 1007.2
20260506204421 19 306 12.9 14.5 0.00 0.66 0.66 88 1007.1
20260506203918 19 302 17.7 19.3 0.00 0.66 0.66 88 1007.4
20260506203415 19 279 8.0 9.7 0.00 0.66 0.66 88 1007.2
20260506202912 19 13 4.8 8.0 0.00 0.66 0.66 89 1007.3
20260506202409 18 337 19.3 24.1 0.00 0.66 0.66 89 1007.4
20260506201905 19 319 4.8 8.0 0.00 0.66 0.66 89 1007.3
20260506201403 19 274 6.4 9.7 0.00 0.66 0.66 89 1007.3
20260506200859 18 289 12.9 19.3 0.00 0.66 0.66 89 1007.1
20260506200355 18 10 9.7 12.9 0.00 0.66 0.66 90 1007.4
20260506195852 18 231 9.7 14.5 0.00 0.66 0.66 90 1007.4
20260506195349 18 319 14.5 17.7 0.00 0.66 0.66 89 1007.3
20260506194846 18 251 8.0 12.9 0.00 0.66 0.66 89 1007.3
20260506194343 18 254 9.7 14.5 0.00 0.66 0.66 89 1007.3
20260506193840 18 247 9.7 12.9 0.00 0.66 0.66 90 1007.5
20260506193337 18 316 20.9 30.6 0.00 0.66 0.66 90 1007.6
20260506192833 18 225 9.7 14.5 0.00 0.66 0.66 90 1007.6
20260506192330 18 225 11.3 12.9 0.00 0.66 0.66 89 1007.7
20260506191827 18 326 8.0 14.5 0.00 0.66 0.66 89 1007.5
20260506191323 18 239 12.9 14.5 0.00 0.66 0.66 90 1007.6
20260506190820 18 273 3.2 4.8 0.00 0.66 0.66 90 1007.6
20260506190317 18 323 24.1 35.4 0.00 0.66 0.66 90 1007.6
20260506185814 17 301 16.1 24.1 0.00 0.66 0.66 91 1007.5
20260506185311 17 328 1.6 3.2 0.00 0.66 0.66 92 1007.6
20260506184808 17 237 8.0 12.9 0.00 0.66 0.66 92 1007.6
20260506184305 17 273 6.4 8.0 0.00 0.66 0.66 92 1007.7
20260506183802 17 273 14.5 17.7 0.00 0.66 0.66 93 1008.0
20260506183257 17 174 9.7 12.9 0.00 0.66 0.66 94 1007.8
20260506182754 17 206 12.9 14.5 0.00 0.66 0.66 94 1007.9
20260506182252 17 220 3.2 8.0 0.00 0.66 0.66 96 1007.9
20260506181750 17 257 9.7 12.9 0.00 0.66 0.66 96 1007.8
20260506181247 16 251 6.4 8.0 0.00 0.66 0.66 97 1007.9
20260506180744 16 255 4.8 8.0 0.00 0.66 0.66 97 1007.9
20260506180240 16 241 4.8 8.0 0.00 0.66 0.66 98 1008.1
20260506175736 16 263 1.6 3.2 0.00 0.66 0.66 98 1008.0
20260506175233 16 212 8.0 12.9 0.00 0.66 0.66 98 1008.0
20260506174731 16 256 16.1 19.3 0.00 0.66 0.66 98 1008.2
20260506174227 16 268 14.5 17.7 0.00 0.66 0.66 97 1008.1
20260506173725 16 250 0.0 0.0 0.00 0.66 0.66 97 1008.2
20260506173222 16 259 8.0 9.7 0.00 0.66 0.66 97 1008.2
20260506172719 16 188 8.0 9.7 0.00 0.66 0.66 98 1007.9
20260506172215 16 179 8.0 12.9 0.00 0.66 0.66 98 1008.2
20260506171713 16 230 4.8 4.8 0.00 0.66 0.66 98 1008.1
20260506171210 16 162 8.0 17.7 0.00 0.66 0.66 98 1007.9
20260506170708 16 267 9.7 12.9 0.00 0.66 0.66 99 1008.2
20260506170204 16 295 8.0 9.7 0.00 0.66 0.66 99 1008.1
20260506165703 16 265 14.5 17.7 0.00 0.66 0.66 99 1007.9
20260506165159 15 260 8.0 12.9 0.00 0.66 0.66 99 1008.1
20260506164656 15 202 8.0 9.7 0.00 0.66 0.66 99 1008.2
20260506164154 15 210 9.7 17.7 0.00 0.66 0.66 99 1008.1
20260506163650 15 195 4.8 8.0 0.00 0.66 0.66 99 1007.9
20260506163145 15 238 8.0 12.9 0.00 0.66 0.66 99 1008.1
20260506162641 15 303 9.7 12.9 0.00 0.66 0.66 99 1008.0
20260506162139 15 220 9.7 12.9 0.00 0.66 0.66 99 1008.2
20260506161636 15 256 8.0 9.7 0.00 0.66 0.66 99 1008.1
20260506161133 15 182 6.4 8.0 0.00 0.66 0.66 99 1008.3
20260506160630 15 224 8.0 9.7 0.00 0.66 0.66 99 1008.3
20260506160127 15 214 8.0 9.7 0.00 0.66 0.66 99 1008.2
20260506155626 15 203 3.2 3.2 0.00 0.66 0.66 99 1008.2
20260506155122 15 171 16.1 19.3 0.18 0.66 0.66 99 1008.1
20260506153225 15 170 6.4 9.7 0.00 0.64 0.64 99 1008.2
20260506152721 15 190 14.5 22.5 0.13 0.64 0.64 99 1007.6
20260506152219 15 213 14.5 19.3 0.30 0.64 0.64 99 1007.8
20260506151718 15 173 8.0 9.7 0.30 0.61 0.61 99 1008.0
20260506151214 15 140 8.0 9.7 0.30 0.58 0.58 99 1008.6
20260506150710 15 180 4.8 9.7 0.48 0.56 0.56 99 1008.8
20260506150207 15 157 8.0 12.9 0.61 0.53 0.53 99 1008.7
20260506145704 15 212 8.0 12.9 0.61 0.51 0.51 99 1009.2
20260506145201 15 253 8.0 9.7 0.48 0.46 0.46 99 1009.1
20260506144658 15 215 3.2 4.8 0.13 0.38 0.38 99 1009.3
20260506144155 15 261 3.2 4.8 0.18 0.36 0.36 99 1009.1
20260506143653 15 256 1.6 3.2 0.18 0.36 0.36 99 1009.1
20260506143150 15 236 8.0 12.9 0.18 0.36 0.36 99 1009.1
20260506142649 15 256 11.3 17.7 0.18 0.33 0.33 99 1009.0
20260506142146 15 214 4.8 8.0 0.18 0.33 0.33 99 1009.0
20260506141644 15 235 8.0 12.9 0.30 0.33 0.33 98 1008.8
20260506141142 15 216 6.4 8.0 0.13 0.30 0.30 98 1008.8
20260506140639 15 122 9.7 12.9 0.18 0.28 0.28 98 1008.9
20260506140136 15 163 6.4 8.0 0.18 0.28 0.28 98 1008.6
20260506135633 15 260 12.9 14.5 0.13 0.25 0.25 97 1008.5
20260506135129 15 183 6.4 9.7 0.30 0.25 0.25 97 1008.5
20260506134626 16 177 11.3 14.5 0.30 0.23 0.23 96 1008.2
20260506134121 16 222 9.7 14.5 0.30 0.20 0.20 95 1008.6
20260506133619 16 220 4.8 8.0 0.30 0.18 0.18 95 1008.8
20260506133116 16 175 9.7 9.7 0.13 0.15 0.15 94 1008.7
20260506132613 16 188 6.4 9.7 0.13 0.15 0.15 94 1008.9
20260506132110 16 231 3.2 4.8 0.00 0.13 0.13 94 1008.6
20260506131608 16 179 8.0 9.7 0.00 0.13 0.13 94 1008.8
20260506131104 16 203 4.8 4.8 0.00 0.13 0.13 94 1008.9
20260506130601 16 187 3.2 4.8 0.18 0.13 0.13 93 1009.1
20260506130058 16 190 3.2 4.8 0.18 0.13 0.13 92 1008.8
20260506125557 16 180 6.4 9.7 0.13 0.10 0.10 92 1008.8
20260506125054 16 266 0.0 0.0 0.13 0.10 0.10 93 1009.1
20260506124551 16 230 1.6 4.8 0.18 0.08 0.08 92 1009.1
20260506124049 16 187 3.2 3.2 0.18 0.08 0.08 91 1009.0
20260506123547 16 244 4.8 4.8 0.00 0.05 0.05 89 1009.0
20260506123045 16 212 0.0 3.2 0.18 0.05 0.05 89 1009.1
20260506122541 16 214 4.8 8.0 0.18 0.05 0.05 88 1009.4
20260506122040 16 244 6.4 9.7 0.00 0.03 0.03 87 1009.2
20260506121537 16 221 9.7 12.9 0.00 0.03 0.03 86 1009.3
20260506121033 17 236 3.2 3.2 0.00 0.03 0.03 86 1009.4
20260506120531 17 314 3.2 4.8 0.00 0.03 0.03 86 1009.3
20260506120028 17 253 6.4 9.7 0.13 0.03 0.03 85 1009.2
20260506115526 17 191 9.7 14.5 0.13 0.03 0.03 83 1009.2
20260506115024 17 224 8.0 12.9 0.00 0.00 0.00 83 1008.8
20260506114521 17 248 4.8 8.0 0.00 0.00 0.00 83 1008.9
20260506114020 17 211 3.2 8.0 0.00 0.00 0.00 83 1008.8
20260506113517 17 227 8.0 9.7 0.00 0.00 0.00 82 1008.7
20260506113014 17 226 1.6 4.8 0.00 0.00 0.00 81 1008.7
20260506112511 17 217 6.4 12.9 0.00 0.00 0.00 80 1008.6
20260506112008 17 206 1.6 3.2 0.00 0.00 0.00 79 1008.6
20260506111506 17 173 4.8 8.0 0.00 0.00 0.00 78 1008.6
20260506111003 18 166 3.2 4.8 0.00 0.00 0.00 76 1008.3
20260506110501 18 168 8.0 12.9 0.00 0.00 0.00 74 1008.3
20260506105957 18 186 11.3 12.9 0.00 0.00 0.00 74 1008.2
20260506105453 18 185 11.3 14.5 0.00 0.00 0.00 73 1008.6
20260506104951 18 214 6.4 8.0 0.00 0.00 0.00 73 1008.1
20260506104449 18 165 11.3 12.9 0.00 0.00 0.00 72 1008.0
20260506103947 18 194 9.7 12.9 0.00 0.00 0.00 72 1007.8
20260506103444 18 154 4.8 4.8 0.00 0.00 0.00 72 1007.9
20260506102940 18 239 8.0 12.9 0.00 0.00 0.00 71 1008.1
20260506102439 18 216 4.8 9.7 0.00 0.00 0.00 71 1007.9
20260506101936 18 250 11.3 19.3 0.00 0.00 0.00 71 1008.0
20260506101432 18 151 1.6 3.2 0.00 0.00 0.00 70 1007.9
20260506100929 18 204 9.7 12.9 0.00 0.00 0.00 70 1007.8
20260506100427 18 209 4.8 9.7 0.00 0.00 0.00 69 1007.9
20260506095925 18 200 9.7 12.9 0.00 0.00 0.00 68 1007.8
20260506095424 19 201 4.8 4.8 0.00 0.00 0.00 68 1007.8
20260506094919 19 153 8.0 9.7 0.00 0.00 0.00 68 1007.7
20260506094418 19 252 8.0 9.7 0.00 0.00 0.00 68 1007.8
20260506093915 19 202 6.4 8.0 0.00 0.00 0.00 68 1007.9
20260506093413 19 252 4.8 4.8 0.00 0.00 0.00 67 1007.7
20260506092911 19 186 4.8 9.7 0.00 0.00 0.00 68 1007.7
20260506092409 19 265 9.7 12.9 0.00 0.00 0.00 67 1007.9
20260506091905 19 154 4.8 4.8 0.00 0.00 0.00 67 1007.9
20260506091403 19 208 1.6 4.8 0.00 0.00 0.00 67 1007.7
20260506090900 19 215 6.4 9.7 0.00 0.00 0.00 67 1008.0
20260506090357 19 169 9.7 14.5 0.00 0.00 0.00 66 1008.1
20260506085854 19 200 6.4 9.7 0.00 0.00 0.00 66 1008.1
20260506085350 19 229 19.3 22.5 0.00 0.00 0.00 65 1008.0
20260506084847 20 140 9.7 14.5 0.00 0.00 0.00 65 1008.2
20260506084344 19 251 9.7 12.9 0.00 0.00 0.00 65 1008.1
20260506083840 19 259 11.3 14.5 0.00 0.00 0.00 65 1008.1
20260506083338 20 183 4.8 9.7 0.00 0.00 0.00 65 1008.0
20260506082835 20 229 6.4 9.7 0.00 0.00 0.00 64 1008.1
20260506082332 20 243 16.1 22.5 0.00 0.00 0.00 64 1008.2
20260506081828 20 264 14.5 14.5 0.00 0.00 0.00 63 1008.1
20260506081326 20 269 9.7 9.7 0.00 0.00 0.00 63 1008.2
20260506080823 20 212 8.0 12.9 0.00 0.00 0.00 62 1008.0
20260506080320 20 262 8.0 12.9 0.00 0.00 0.00 62 1008.0
20260506073304 20 208 4.8 4.8 0.00 0.00 0.00 61 1008.3
20260506072800 20 217 4.8 8.0 0.00 0.00 0.00 61 1008.6
20260506072258 20 219 4.8 8.0 0.00 0.00 0.00 61 1008.2
20260506071756 20 232 3.2 4.8 0.00 0.00 0.00 61 1008.7
20260506071254 20 278 6.4 8.0 0.00 0.00 0.00 60 1008.5
20260506070750 20 202 8.0 12.9 0.00 0.00 0.00 60 1008.2
20260506070247 20 340 3.2 3.2 0.00 0.00 0.00 60 1008.6
20260506062224 20 266 4.8 4.8 0.00 0.00 0.00 58 1009.0
20260506061720 20 240 3.2 4.8 0.00 0.00 0.00 58 1009.2
20260506061218 20 229 8.0 8.0 0.00 0.00 0.00 57 1009.0
20260506060716 20 240 8.0 9.7 0.00 0.00 0.00 57 1008.9
20260506060213 20 246 8.0 9.7 0.00 0.00 0.00 57 1009.1
20260506051145 21 22 6.4 12.9 0.00 0.00 0.00 52 1009.8
20260506050643 21 308 12.9 17.7 0.00 0.00 0.00 52 1009.6
20260506050140 21 242 12.9 14.5 0.00 0.00 0.00 51 1009.4
20260506045133 21 230 4.8 8.0 0.00 0.00 0.00 51 1009.4
20260506044631 21 52 3.2 4.8 0.00 0.00 0.00 50 1009.4
20260506044128 21 214 4.8 4.8 0.00 0.00 0.00 50 1009.4
20260506043625 21 266 11.3 12.9 0.00 0.00 0.00 49 1009.3
20260506043123 21 246 11.3 19.3 0.00 0.00 0.00 49 1009.4
20260506042622 21 248 8.0 12.9 0.00 0.00 0.00 49 1009.3
20260506042119 21 249 17.7 19.3 0.00 0.00 0.00 48 1009.5
20260506041618 21 172 3.2 8.0 0.00 0.00 0.00 49 1009.5
20260506041114 21 238 6.4 8.0 0.00 0.00 0.00 47 1009.4